This demonstration page uses our WeatherBlox Daily Observations layout. Learn more.

Left ArrowRight Arrow

41.55636, -103.73856

Hourly Observations for December 4, 2017

Temp ( °F °C ) Dew Point ( °F °C ) Humidity (%) Winds ( mph kmh ) Pressure ( in mb ) Visibility ( mi km ) Precip ( " mm )
12:53 am 00:53 Clear 40 4.4 32 undefined 73 73 NW 12 19 29.54 1000 10 16 N/A
1:53 am 01:53 Clear 42 5.6 31 -0.6 65 65 WNW 17 28 29.58 1002 10 16 N/A
2:53 am 02:53 Partly Cloudy 38 3.3 30 -1.1 73 73 NW 22 35 29.62 1003 10 16 N/A
3:39 am 03:39 Mostly Cloudy 38 3.3 30 -1.1 73 73 WNW 22 35 29.71 1006 10 16 N/A
3:53 am 03:53 Partly Cloudy 36 2.2 29 -1.7 76 76 WNW 22 35 29.66 1004 10 16 N/A
4:53 am 04:53 Mostly Cloudy 36 2.2 26 -3.3 67 67 NW 16 26 29.72 1007 10 16 N/A
5:00 am 05:00 Cloudy 36 2 27 -3 70 70 NW 25 41 29.77 1008 10 16 N/A
5:09 am 05:09 Mostly Cloudy 34 1.1 25 -3.9 70 70 WNW 23 37 29.80 1009 10 16 N/A
5:35 am 05:35 Cloudy 36 2 25 -4 65 65 WNW 21 33 29.77 1008 10 16 N/A
5:53 am 05:53 Cloudy with Light Rain 35 1.7 26 -3.3 70 70 WNW 24 39 29.76 1008 10 16 N/A
6:14 am 06:14 Cloudy 36 2 25 -4 65 65 WNW 21 33 29.80 1009 9 14 N/A
6:53 am 06:53 Cloudy with Light Wintry Mix 34 1.1 26 -3.3 73 73 WNW 36 57 29.83 1010 8 13 N/A
7:32 am 07:32 Windy with Snow Likely 32 undefined 25 -4 75 75 NW 28 44 29.94 1014 3 4 N/A
7:42 am 07:42 Windy with Snow Likely 30 -1 25 -4 80 80 NW 30 48 29.94 1014 1 2 N/A
7:50 am 07:50 Mostly Cloudy with Snow 30 -1 27 -3 86 86 NW 20 31 29.94 1014 1 1 N/A
7:53 am 07:53 Mostly Cloudy with Snow 31 -0.6 27 -2.8 85 85 NW 23 37 29.90 1012 1 1 N/A
8:06 am 08:06 Windy with Snow Likely 31 -0.6 25 -3.9 79 79 NW 31 50 29.94 1014 2 3 N/A
8:10 am 08:10 Windy with Snow Likely 30 -1 25 -4 80 80 NW 33 54 29.94 1014 3 5 N/A
8:21 am 08:21 Windy with Snow Likely 31 -0.6 24 -4.4 76 76 NW 35 56 29.97 1015 3 4 N/A
8:34 am 08:34 Windy with Snow Likely 30 -1 25 -4 80 80 NW 29 46 30.00 1016 2 2 N/A
8:47 am 08:47 Windy with Snow Likely 30 -1 23 -5 75 75 NW 30 48 30.03 1017 2 3 N/A
8:53 am 08:53 Windy with Snow Likely 30 -1.1 22 -5.6 72 72 NW 36 57 29.96 1014 4 6 N/A
9:53 am 09:53 Cloudy 31 -0.6 21 -6.1 67 67 NW 31 50 30.02 1017 10 16 N/A
10:21 am 10:21 Cloudy 28 -2.2 16 -8.9 60 60 NW 35 56 30.15 1021 10 16 N/A
10:53 am 10:53 Cloudy 30 -1.1 16 -8.9 56 56 NW 26 43 30.07 1018 10 16 N/A
11:53 am 11:53 Sunny 30 -1.1 11 -11.7 45 45 NW 31 50 30.08 1019 10 16 N/A
12:53 pm 12:53 Sunny 33 0.6 11 -11.7 40 40 NW 33 54 30.08 1019 10 16 N/A
1:53 pm 13:53 Sunny 31 -0.6 7 -13.9 36 36 NNW 25 41 30.10 1019 10 16 N/A
2:53 pm 14:53 Sunny 30 -1.1 6 -14.4 36 36 NW 24 39 30.15 1021 10 16 N/A
3:53 pm 15:53 Sunny 27 -2.8 7 -13.9 43 43 NW 17 28 30.19 1022 10 16 N/A
4:53 pm 16:53 Clear 23 -5 7 -13.9 50 50 WNW 12 19 30.20 1023 10 16 N/A
5:53 pm 17:53 Clear 20 -6.7 7 -13.9 57 57 WNW 9 15 30.22 1024 10 16 N/A
6:53 pm 18:53 Clear 19 -7.2 6 -14.4 57 57 WNW 9 15 30.25 1024 10 16 N/A
7:53 pm 19:53 Clear 15 -9.4 5 -15 64 64 WNW 3 6 30.28 1026 10 16 N/A
8:53 pm 20:53 Clear 16 -8.9 6 -14.4 65 65 W 8 13 30.29 1026 10 16 N/A
9:53 pm 21:53 Mostly Clear 13 -10.6 5 -15 70 70 NNW 9 15 30.30 1026 10 16 N/A
10:53 pm 22:53 Mostly Cloudy 16 -8.9 7 -13.9 67 67 NW 8 13 30.29 1026 10 16 N/A
11:53 pm 23:53 Partly Cloudy 16 -8.9 7 -13.9 67 67 NW 9 15 30.29 1026 10 16 N/A

Powered by AerisWeather